Simultaneous Nadir Overpasses (SNOs) Predictions

Prediction of SNOs between METOP-B and NOAA-19 Satellite Orbit:

Table of predicted SNOs for the next 14.0 days since TLE Epoch: 1/10/2016
Index Date (METOP-B) Time (METOP-B) Lat,Lon (METOP-B) SZA (METOP-B ) Date (NOAA-19) Time (NOAA-19) Lat,Lon (NOAA-19) SZA (NOAA-19 ) Distance(km) Time Diff (sec)
1 01/18/2016 19:32:35 75.90,-113.38 96.37 01/18/2016 19:31:24 75.92,-114.98 96.41 43.25 71
2 01/18/2016 20:23:22 -75.66, 53.16 83.88 01/18/2016 20:22:21 -75.66, 53.15 83.87 0.42 61
3 01/18/2016 21:14:02 75.64,-139.54 96.11 01/18/2016 21:13:20 75.63,-139.51 96.10 1.75 42
4 01/18/2016 22:04:44 -75.64, 27.75 83.91 01/18/2016 22:04:23 -75.65, 27.68 83.90 2.31 21
5 01/18/2016 22:55:24 75.62,-164.95 96.07 01/18/2016 22:55:22 75.62,-164.97 96.07 0.76 2
6 01/18/2016 23:46:06 -75.61, 2.35 83.95 01/18/2016 23:46:24 -75.59, 2.37 83.98 2.96 18
7 01/19/2016 00:36:46 75.60, 169.64 96.04 01/19/2016 00:37:24 75.60, 169.56 96.04 2.20 38
8 01/19/2016 01:27:27 -75.59, -23.06 83.98 01/19/2016 01:28:25 -75.58, -23.10 84.00 2.15 58
9 01/19/2016 02:18:10 75.44, 143.79 95.87 01/19/2016 02:19:22 75.45, 144.55 95.87 21.13 72




NCC Satellite Simultaneous Nadir Overpasses (SNOs) Prediction Service
